ORBCOMM FM06 [+]

Last updated on Fri Dec 29 2023 00:02:53 GMT+0000 (Coordinated Universal Time)

1 25118U 97084G 23362.13617931 .00002587 00000+0 82613-3 0 9996 2 25118 45.0155 58.2046 0000528 283.8144 168.0401 14.41895988363929
UTC large
Height (km)
Speed (km/s)
/
Latitude / Longitude
Inclination (degrees)
Orbital Period (minutes)
Azimuth
Elevation
Range (km)
Doppler Factor

Next 0 passes for location: London (51.5072 / 0.1276)

Sorry there are no passes over London.
ORBCOMM FM06 [+]